Вернуться в каталог

THORAD AGENA D DEB

АктивенPO
NORAD 4822·DEBRIS·🇺🇸 United States

Запущен Apr 8, 1970 с Vandenberg Space Force Base

Loading…

Ближайшие Пролёты (ближайшие 24 часа)

TLE

СвежийSource: Space-Track

Эпоха: Sep 14, 2026, 10:29 UTC

1 04822U 70025ED  26257.43700422  .00002513  00000-0  11787-2 0  9991
2 04822  99.4024  75.8653 0049756 206.5982 153.2638 14.20480160803266

Отслеживайте THORAD AGENA D DEB в реальном времени с AllMySat

Download on the App Store